默认 日期 大小 文件数 浏览量 最新下载 xml
2017磁力链接相关资源由用户搜索指令自动获取,结果来源于网络,本站不存储任何资料,亦不承担任何责任,请于24小时内删除,搜索到630028个磁力,显示前4000条数据,用时348ms。
    {"cover.jpg": 7009590, "foo_dr.txt": 1298, "Folder.auCDtect.txt": 4202, "Hate Inclination - Disease Swept the Cosmos - 06 Telekinetic Visions.flac": 31477018, "Hate Inclination - Disease Swept the Cosmos - 05 Encountering the Seed.flac": 28383300, "Hate ...
创建时间: 2025-12-22 13:54:56 大小:225.67 MB 文件数量:10 热度:0
    {"Torrent Downloaded From UIndex.org .txt": 129, "Domain 2017 1080p AMZN WEB-DL DDP5 1 H 264-NTG.mkv": 3562921270, "Domain 2017 1080p AMZN WEB-DL DDP5 1 H 264-NTG.mkv.nfo": 761}
创建时间: 2025-12-22 12:42:35 大小:3.32 GB 文件数量:3 热度:0
    ... OF YEARS - STOCKHOLM, SWEDEN,COPPERFIELDS, 2017-10-27 (TREKYTT MASTER) 44 ... OF YEARS - STOCKHOLM, SWEDEN,COPPERFIELDS, 2017-10-27 (TREKYTT MASTER) 44 ... OF YEARS - STOCKHOLM, SWEDEN,COPPERFIELDS, 2017-10-27 (TREKYTT MASTER) 44 ...
创建时间: 2025-12-22 12:10:18 大小:208.15 MB 文件数量:11 热度:0
    {"CD 1": {"Folder.auCDtect.txt": 6406, "15. Atmospheres.flac": 23992455, "11. Save My Soul.flac": 17729278, "07. Bluebell Wood.flac": 18817406, "01. Marmalade Hair.flac": 14650919, "03. Coloured Glass.flac": 12174722, "04. Lollipop Minds.flac": 17084678, " ...
创建时间: 2025-12-22 10:43:47 大小:419.14 MB 文件数量:33 热度:0
    {"Torrent Downloaded From UIndex.org .txt": 129, "Shattered 2017 S02E06 1080p DSCP WEB-DL DDP2 0 H 264-NTb.mkv": 867317580, "Shattered 2017 S02E06 1080p DSCP WEB-DL DDP2 0 H 264-NTb.nfo": 5033}
创建时间: 2025-12-22 10:20:48 大小:827.14 MB 文件数量:3 热度:0
    {"SAMPLE.mp4": 2972271, "Inoperable.2017.WEB.X264.With.Sample.MFH.mp4": 494431599}
创建时间: 2025-12-22 10:16:30 大小:474.36 MB 文件数量:2 热度:0
    ... .txt": 129, "The.Demon.Inside.2017.720p.WEBRip.x264.AAC-LAMA ... .mp4": 945680858, "The.Demon.Inside.2017.720p.WEBRip.x264.AAC-LAMA ...
创建时间: 2025-12-22 09:22:25 大小:901.99 MB 文件数量:5 热度:0
    {"cover.jpg": 127776, "tracklist.txt": 1177, "ONLY WEEKDAYS PODCAST (SPRING EDITION 2017).mp3": 144513098}
创建时间: 2025-12-22 09:21:34 大小:137.94 MB 文件数量:3 热度:0
    ... of Nintendo DS games - Jul 2017.html": 5998957}
创建时间: 2025-12-22 09:16:48 大小:19.97 MB 文件数量:74 热度:0
    ... ": 129, "served.like.a.girl.2017.1080p.web.h264-javlar.mkv ... ": 6451031765, "served.like.a.girl.2017.1080p.web.h264-javlar.nfo ...
创建时间: 2025-12-22 09:02:42 大小:6.02 GB 文件数量:7 热度:0
    ... .TORRENTING.COM.txt": 84, "Conan.2017.08.17.Carl.Reiner.720p ... .x265-MeGusta.mkv": 281596684, "Conan.2017.08.17.Carl.Reiner.720p ...
创建时间: 2025-12-22 08:59:07 大小:272.57 MB 文件数量:7 热度:0
    ... x265 Celdra).mkv": 823556844, "Powerless (2017) - S01E10 - Green Furious (1080p AMZN ... x265 Celdra).mkv": 800490416, "Powerless (2017) - S01E08 - Emergency Punch-Up (1080p ... x265 Celdra).mkv": 804149541, "Powerless (2017) - S01E11 - No Consequence Day (1080p ...
创建时间: 2025-12-22 08:52:12 大小:8.99 GB 文件数量:12 热度:0
    {"VIDEO_TS": {"VIDEO_TS.BUP": 18432, "VIDEO_TS.IFO": 18432, "VIDEO_TS.VOB": 116736, "VTS_01_0.BUP": 102400, "VTS_01_0.IFO": 102400, "VTS_01_0.VOB": 120027136, "VTS_01_1.VOB": 1073565696, "VTS_01_2.VOB": 1073565696, "VTS_01_3.VOB": 1073565696, "VTS_01_4.VOB ...
创建时间: 2025-12-22 08:25:35 大小:7.43 GB 文件数量:34 热度:0
    {"Subs": {"Portuguese (Brazil).por.srt": 59240, "Spanish (Latin America).spa.srt": 58798}, "www.YTS.LT.jpg": 58349, "YTSYifyUP... (TOR).txt": 840, "The.Demon.Inside.2017.720p.WEBRip.x264.AAC-[YTS.LT].mp4": 945680858}
创建时间: 2025-12-22 08:11:14 大小:902.04 MB 文件数量:5 热度:0
    {"Trench 11 2017 1080p AMZN WEB-DL H264-GPRS.mkv": 2908875253, "Torrent Downloaded From UIndex.org .txt": 129, "Trench 11 2017 1080p AMZN WEB-DL H264-GPRS.mkv.nfo": 724}
创建时间: 2025-12-21 19:12:29 大小:2.71 GB 文件数量:3 热度:0
    ... , "01.Xogdenie.po.mukam.2017.WEB-DLRRip.Files-x.srt ... , "02.Xogdenie.po.mukam.2017.WEB-DLRRip.Files-x.srt ... , "03.Xogdenie.po.mukam.2017.WEB-DLRRip.Files-x.srt ... , "04.Xogdenie.po.mukam.2017.WEB-DLRRip.Files-x.srt ... , "05.Xogdenie.po.mukam.2017.WEB-DLRRip.Files-x.srt ...
创建时间: 2025-12-21 19:04:13 大小:7.6 GB 文件数量:24 热度:0
    {"Get.Me.Pregnant.2017.P1.mp4": 1256806115, "Get.Me.Pregnant.2017.P2.mp4": 408066252}
创建时间: 2025-12-21 18:52:32 大小:1.55 GB 文件数量:2 热度:0
    {"Sample": {"gs88-sample.mkv": 10619566}, "gs88-executor.mkv": 813379676, "gs88-executor.nfo": 10915}
创建时间: 2025-12-21 18:42:35 大小:785.84 MB 文件数量:3 热度:0
    {"BDMV": {"JAR": {"bd.nmlz": 32}, "BDJO": {"bd.nmlz": 32}, "META": {"DL": {"icon.jpg": 64715, "icon_s.jpg": 41809, "bdmt_eng.xml": 508}}, "BACKUP": {"JAR": {"bd.nmlz": 32}, "BDJO": {"bd.nmlz": 32}, "CLIPINF": {"00000.clpi": 1016, "00001.clpi": 292, "00002. ...
创建时间: 2025-12-21 18:38:33 大小:42.31 GB 文件数量:94 热度:0
    {"Cover.jpg": 42213, "Tracklist.txt": 349, "__ia_thumb.jpg": 15058, "Cover_thumb.jpg": 7018, "Kevin_Gates_-_Gold_Paradise-2017_meta.xml": 1009, "Kevin_Gates_-_Gold_Paradise-2017_meta.sqlite": 20480, "03 - Kevin Gates ft Quavo and Rick Ross - Lambo.mp3": ...
创建时间: 2025-12-21 18:30:54 大小:62.51 MB 文件数量:30 热度:0